Regional Weather Roundup
Issued by NWS

Home | Current Version | Previous Version | Graphics & Text | Print | Product List | Glossary On
Versions: 1 2 3 4 5 6 7 8 9 10 11 12 13 14 15 16 17 18 19 20 21 22 23 24 25 26 27 28 29 30 31 32 33 34 35 36 37 38 39 40 41 42 43 44 45 46 47 48 49 50
000
ASUS45 KCYS 252210
RWRWY

WYOMING REGIONAL WEATHER ROUNDUP
NATIONAL WEATHER SERVICE CHEYENNE WY
400 PM MDT SAT APR 25 2015

NOTE:  "FAIR" INDICATES FEW OR NO CLOUDS BELOW 12,000 FEET
WITH NO SIGNIFICANT WEATHER AND/OR OBSTRUCTIONS TO VISIBILITY.

WYZ001-252300-
YELLOWSTONE NATIONAL PARK

CITY           SKY/WX    TMP DP  RH WIND       PRES   REMARKS
LK YELLOWSTONE   N/A     39  24  55 W8        29.82F WCI  33
W YELLOWSTONE  NOT AVBL

$$
WYZ002>013-054>058-071-098>099-252300-
NORTHERN WYOMING

CITY           SKY/WX    TMP DP  RH WIND       PRES   REMARKS
JACKSON        PTSUNNY   46  21  36 S12       29.78F
CODY           CLOUDY    46  36  66 N9        29.79S
GREYBULL       FAIR      56  33  42 N10G17    29.75F
WORLAND        PTSUNNY   53  37  54 N8        29.76F
SHERIDAN       CLOUDY    45  35  68 N13       29.81S
BUFFALO        FAIR      44  35  70 N24G35    29.78F
GILLETTE       PTSUNNY   45  36  70 NW17      29.77R
HULETT         CLOUDY    46  41  81 NW15G22   29.78R
NEWCASTLE      FAIR      54  46  76 N9        29.72R

$$
WYZ014>020-022>026-101>103-252300-
CENTRAL WYOMING

CITY           SKY/WX    TMP DP  RH WIND       PRES   REMARKS
BIG PINEY      PTSUNNY   49  20  31 CALM      29.76F
PINEDALE       MOCLDY    46  27  46 W5        29.78F
DUBOIS         MOCLDY    45  18  33 NW15      29.74F
LANDER         FAIR      56  36  47 NE16G22   29.68S
RIVERTON       LGT RAIN  48  37  65 N15G25    29.72F
CASPER         FAIR      60  27  28 SW7G17    29.72F
DOUGLAS        FAIR      59  32  36 W13       29.73S

$$
WYZ021-027>030-104>119-252300-
SOUTHERN WYOMING

CITY           SKY/WX    TMP DP  RH WIND       PRES   REMARKS
EVANSTON       FAIR      49  26  41 N6        29.72F
KEMMERER       CLOUDY    48  25  40 W6        29.75F
FORT BRIDGER   CLOUDY    50  30  46 E13       29.76F
ROCK SPRINGS   CLOUDY    52  23  32 SW8       29.76F
DIXON          FAIR      53  29  40 CALM      29.81F
RAWLINS        CLOUDY    54  27  35 SW13G23   29.77F
SARATOGA       FAIR      52  28  40 W7G20     29.80F
LARAMIE        PTSUNNY   49  34  56 N9        29.79S
CHEYENNE       LGT RAIN  49  38  65 W18G25    29.79R
TORRINGTON     FAIR      66  33  29 W15       29.68R
PINE BLUFFS    CLOUDY    59  37  44 NE13G18   29.73R

$$


USA.gov is the U.S. government's official web portal to all federal, state and local government web resources and services.